| time (UTC) | temp C | wind direction | speed KPH | gust KPH | rain 1hr cm | rain 24hr cm | rain mn cm | humidity % | barometer mb |
| 20260906164650 | 37 | 360 | 4.8 | 0.0 | 0.00 | 0.00 | 0.00 | 42 | 1013.3 |
| 20260906163058 | 36 | 121 | 3.2 | 0.0 | 0.00 | 0.00 | 0.00 | 43 | 1013.3 |
| 20260906161547 | 35 | 360 | 1.6 | 0.0 | 0.00 | 0.00 | 0.00 | 47 | 1013.4 |
| 20260906160044 | 34 | 156 | 1.6 | 0.0 | 0.00 | 0.00 | 0.00 | 50 | 1013.4 |
| 20260906154639 | 33 | 123 | 1.6 | 0.0 | 0.00 | 0.00 | 0.00 | 52 | 1013.4 |
| 20260906153034 | 33 | 55 | 3.2 | 0.0 | 0.00 | 0.00 | 0.00 | 54 | 1013.3 |
| 20260906151530 | 32 | 360 | 3.2 | 0.0 | 0.00 | 0.00 | 0.00 | 57 | 1013.4 |
| 20260906150030 | 31 | 17 | 3.2 | 0.0 | 0.00 | 0.00 | 0.00 | 56 | 1013.3 |
| 20260906144625 | 31 | 39 | 1.6 | 0.0 | 0.00 | 0.00 | 0.00 | 60 | 1013.3 |
| 20260906143033 | 30 | 36 | 3.2 | 0.0 | 0.00 | 0.00 | 0.00 | 60 | 1013.3 |
| 20260906141529 | 30 | 124 | 3.2 | 0.0 | 0.00 | 0.00 | 0.00 | 60 | 1013.2 |
| 20260906140030 | 30 | 112 | 1.6 | 0.0 | 0.00 | 0.00 | 0.00 | 62 | 1013.1 |
| 20260906134615 | 28 | 92 | 1.6 | 0.0 | 0.00 | 0.00 | 0.00 | 68 | 1013.2 |
| 20260906133012 | 26 | 150 | 1.6 | 0.0 | 0.00 | 0.00 | 0.00 | 71 | 1013.1 |
| 20260906131520 | 25 | 144 | 0.0 | 0.0 | 0.00 | 0.00 | 0.00 | 75 | 1013.0 |
| 20260906130009 | 23 | 165 | 1.6 | 0.0 | 0.00 | 0.00 | 0.00 | 78 | 1013.1 |
| 20260906124612 | 22 | 150 | 0.0 | 0.0 | 0.00 | 0.00 | 0.00 | 80 | 1012.9 |
| 20260906123007 | 22 | 122 | 0.0 | 0.0 | 0.00 | 0.00 | 0.00 | 80 | 1012.7 |
| 20260906121507 | 22 | 114 | 1.6 | 0.0 | 0.00 | 0.00 | 0.00 | 80 | 1012.6 |
| 20260906120006 | 22 | 193 | 0.0 | 0.0 | 0.00 | 0.00 | 0.00 | 81 | 1012.4 |
| 20260906114610 | 22 | 194 | 0.0 | 0.0 | 0.00 | 0.00 | 0.00 | 80 | 1012.2 |
| 20260906113002 | 22 | 200 | 0.0 | 0.0 | 0.00 | 0.00 | 0.00 | 80 | 1012.0 |
| 20260906111616 | 22 | 200 | 0.0 | 0.0 | 0.00 | 0.00 | 0.00 | 79 | 1011.9 |
| 20260906110059 | 22 | 198 | 0.0 | 0.0 | 0.00 | 0.00 | 0.00 | 78 | 1011.9 |
| 20260906104557 | 23 | 198 | 0.0 | 0.0 | 0.00 | 0.00 | 0.00 | 77 | 1011.9 |
| 20260906103056 | 23 | 200 | 0.0 | 0.0 | 0.00 | 0.00 | 0.00 | 77 | 1011.9 |
| 20260906101556 | 23 | 200 | 0.0 | 0.0 | 0.00 | 0.00 | 0.00 | 76 | 1011.9 |
| 20260906100054 | 23 | 201 | 0.0 | 0.0 | 0.00 | 0.00 | 0.00 | 76 | 1011.8 |
| 20260906094554 | 23 | 198 | 0.0 | 0.0 | 0.00 | 0.00 | 0.00 | 75 | 1011.6 |
| 20260906093059 | 23 | 199 | 0.0 | 0.0 | 0.00 | 0.00 | 0.00 | 74 | 1011.6 |
| 20260906091603 | 24 | 199 | 0.0 | 0.0 | 0.00 | 0.00 | 0.00 | 73 | 1011.5 |
| 20260906090058 | 24 | 200 | 0.0 | 0.0 | 0.00 | 0.00 | 0.00 | 71 | 1011.3 |
| 20260906084555 | 25 | 197 | 0.0 | 0.0 | 0.00 | 0.00 | 0.00 | 70 | 1011.4 |
| 20260906083047 | 25 | 141 | 1.6 | 0.0 | 0.00 | 0.00 | 0.00 | 70 | 1011.4 |
| 20260906081546 | 25 | 101 | 1.6 | 0.0 | 0.00 | 0.00 | 0.00 | 69 | 1011.2 |
| 20260906080044 | 25 | 120 | 1.6 | 0.0 | 0.00 | 0.00 | 0.00 | 69 | 1011.3 |
| 20260906074543 | 25 | 151 | 1.6 | 0.0 | 0.00 | 0.00 | 0.00 | 68 | 1011.4 |
| 20260906073044 | 25 | 125 | 1.6 | 0.0 | 0.00 | 0.00 | 0.00 | 67 | 1011.5 |
| 20260906071556 | 25 | 127 | 3.2 | 0.0 | 0.00 | 0.00 | 0.00 | 66 | 1011.6 |
| 20260906070040 | 25 | 123 | 3.2 | 0.0 | 0.00 | 0.00 | 0.00 | 66 | 1011.6 |
| 20260906064540 | 25 | 134 | 1.6 | 0.0 | 0.00 | 0.00 | 0.00 | 67 | 1011.8 |
| 20260906063040 | 25 | 142 | 0.0 | 0.0 | 0.00 | 0.00 | 0.00 | 67 | 1012.0 |
| 20260906061540 | 25 | 141 | 0.0 | 0.0 | 0.00 | 0.00 | 0.00 | 68 | 1011.9 |
| 20260906060038 | 25 | 141 | 0.0 | 0.0 | 0.00 | 0.00 | 0.00 | 67 | 1011.8 |
| 20260906054538 | 25 | 121 | 0.0 | 0.0 | 0.00 | 0.00 | 0.00 | 67 | 1012.0 |
| 20260906053036 | 25 | 149 | 0.0 | 0.0 | 0.00 | 0.00 | 0.00 | 67 | 1011.9 |
| 20260906051534 | 26 | 149 | 0.0 | 0.0 | 0.00 | 0.00 | 0.00 | 66 | 1011.8 |
| 20260906050032 | 26 | 150 | 0.0 | 0.0 | 0.00 | 0.00 | 0.03 | 65 | 1011.8 |
| 20260906044532 | 26 | 149 | 0.0 | 0.0 | 0.00 | 0.00 | 0.03 | 64 | 1011.7 |
| 20260906043033 | 26 | 149 | 1.6 | 0.0 | 0.00 | 0.00 | 0.03 | 63 | 1012.0 |
| 20260906041533 | 26 | 123 | 1.6 | 0.0 | 0.00 | 0.00 | 0.03 | 63 | 1011.9 |
| 20260906040038 | 26 | 142 | 1.6 | 0.0 | 0.00 | 0.00 | 0.03 | 63 | 1011.8 |
| 20260906034542 | 26 | 150 | 0.0 | 0.0 | 0.00 | 0.00 | 0.03 | 62 | 1011.8 |
| 20260906033032 | 26 | 151 | 0.0 | 0.0 | 0.00 | 0.00 | 0.03 | 62 | 1011.6 |
| 20260906031530 | 27 | 150 | 0.0 | 0.0 | 0.00 | 0.00 | 0.03 | 61 | 1011.5 |
| 20260906030031 | 27 | 136 | 1.6 | 0.0 | 0.00 | 0.00 | 0.03 | 61 | 1011.5 |
| 20260906024530 | 27 | 141 | 1.6 | 0.0 | 0.00 | 0.00 | 0.03 | 61 | 1011.2 |
| 20260906023033 | 27 | 165 | 1.6 | 0.0 | 0.00 | 0.00 | 0.03 | 61 | 1011.0 |
| 20260906021532 | 27 | 170 | 0.0 | 0.0 | 0.00 | 0.00 | 0.03 | 61 | 1011.0 |
| 20260906020038 | 27 | 146 | 0.0 | 0.0 | 0.00 | 0.00 | 0.03 | 59 | 1010.7 |
| 20260906014548 | 27 | 142 | 0.0 | 0.0 | 0.00 | 0.00 | 0.03 | 59 | 1010.5 |
| 20260906013033 | 27 | 147 | 1.6 | 0.0 | 0.00 | 0.00 | 0.03 | 58 | 1010.6 |
| 20260906011538 | 28 | 158 | 1.6 | 0.0 | 0.00 | 0.00 | 0.03 | 58 | 1010.4 |
| 20260906010029 | 28 | 110 | 1.6 | 0.0 | 0.00 | 0.00 | 0.03 | 57 | 1010.5 |
| 20260906004537 | 28 | 84 | 1.6 | 0.0 | 0.00 | 0.00 | 0.03 | 56 | 1010.5 |
| 20260906003046 | 29 | 17 | 3.2 | 0.0 | 0.00 | 0.00 | 0.03 | 57 | 1010.5 |
| 20260906001532 | 29 | 11 | 3.2 | 0.0 | 0.00 | 0.00 | 0.03 | 58 | 1010.6 |
| 20260906000032 | 28 | 30 | 1.6 | 0.0 | 0.00 | 0.00 | 0.03 | 62 | 1010.8 |
| 20260905234532 | 29 | 5 | 0.0 | 0.0 | 0.00 | 0.00 | 0.03 | 64 | 1010.0 |
| 20260905233031 | 30 | 24 | 1.6 | 0.0 | 0.00 | 0.00 | 0.03 | 62 | 1010.1 |
| 20260905231535 | 31 | 252 | 4.8 | 0.0 | 0.00 | 0.00 | 0.03 | 57 | 1010.1 |
| 20260905230028 | 33 | 35 | 9.7 | 0.0 | 0.00 | 0.00 | 0.00 | 46 | 1010.2 |
| 20260905224533 | 34 | 121 | 0.0 | 0.0 | 0.00 | 0.00 | 0.00 | 42 | 1010.0 |
| 20260905223027 | 34 | 122 | 1.6 | 0.0 | 0.00 | 0.00 | 0.00 | 42 | 1009.9 |
| 20260905221527 | 35 | 115 | 1.6 | 0.0 | 0.00 | 0.00 | 0.00 | 42 | 1009.8 |
| 20260905220026 | 35 | 119 | 0.0 | 0.0 | 0.00 | 0.00 | 0.00 | 42 | 1009.9 |
| 20260905214526 | 35 | 96 | 1.6 | 0.0 | 0.00 | 0.00 | 0.00 | 42 | 1010.0 |
| 20260905213038 | 36 | 86 | 1.6 | 0.0 | 0.00 | 0.00 | 0.00 | 40 | 1010.0 |
| 20260905211525 | 36 | 26 | 3.2 | 0.0 | 0.00 | 0.00 | 0.00 | 39 | 1010.1 |
| 20260905210024 | 36 | 16 | 4.8 | 0.0 | 0.00 | 0.00 | 0.00 | 38 | 1010.4 |
| 20260905204525 | 36 | 325 | 1.6 | 0.0 | 0.00 | 0.00 | 0.00 | 38 | 1010.5 |
| 20260905203023 | 36 | 340 | 1.6 | 0.0 | 0.00 | 0.00 | 0.00 | 38 | 1010.6 |
| 20260905201523 | 36 | 107 | 4.8 | 0.0 | 0.00 | 0.00 | 0.00 | 36 | 1010.9 |
| 20260905200020 | 37 | 190 | 1.6 | 0.0 | 0.00 | 0.00 | 0.00 | 37 | 1011.1 |
| 20260905194519 | 37 | 190 | 1.6 | 0.0 | 0.00 | 0.00 | 0.00 | 36 | 1011.4 |
| 20260905193019 | 38 | 94 | 3.2 | 0.0 | 0.00 | 0.00 | 0.00 | 36 | 1011.6 |
| 20260905191517 | 38 | 328 | 3.2 | 0.0 | 0.00 | 0.00 | 0.00 | 36 | 1011.8 |
| 20260905190016 | 38 | 308 | 3.2 | 0.0 | 0.00 | 0.00 | 0.00 | 37 | 1012.0 |
| 20260905184516 | 38 | 105 | 6.4 | 0.0 | 0.00 | 0.00 | 0.00 | 39 | 1012.3 |
| 20260905183014 | 39 | 16 | 3.2 | 0.0 | 0.00 | 0.00 | 0.00 | 36 | 1012.4 |
| 20260905181513 | 39 | 275 | 4.8 | 0.0 | 0.00 | 0.00 | 0.00 | 35 | 1012.6 |
| 20260905180016 | 38 | 229 | 8.0 | 0.0 | 0.00 | 0.00 | 0.00 | 37 | 1012.9 |
| 20260905174512 | 38 | 68 | 1.6 | 0.0 | 0.00 | 0.00 | 0.00 | 39 | 1013.0 |
| 20260905173006 | 38 | 210 | 1.6 | 0.0 | 0.00 | 0.00 | 0.00 | 42 | 1013.1 |
| 20260905171513 | 38 | 34 | 4.8 | 0.0 | 0.00 | 0.00 | 0.00 | 40 | 1013.3 |
| 20260905170003 | 37 | 13 | 3.2 | 0.0 | 0.00 | 0.00 | 0.00 | 43 | 1013.5 |